Other Surface Observations
Issued by NWS

Home | Current Version | Previous Version | Text Only | Print | Product List | Glossary On
Versions: 1 2 3 4 5 6 7 8 9 10 11 12 13 14 15 16 17 18 19 20 21 22 23 24 25 26 27 28 29 30 31 32 33 34 35 36 37 38 39 40 41 42 43 44 45 46 47 48 49 50
000
SXUS52 KTAE 040019
OSOTAE
OSOTAE
North Florida/South Alabama/Southwest Georgia Weather Roundup
National Weather Service Tallahassee Florida
700 PM EST SAT DEC 03 2016

Note: "fair" indicates few or no clouds below 12,000 feet with no
significant weather and/or obstructions to visibility.

!FLZ017-115-028-034-025-040100
...North Florida...

CITY           SKY/WX    TMP DP  RH WIND       PRES   REMARKS
TALLAHASSEE    CLOUDY    63  38  39 NE7       30.14R
APALACHICOLA   CLEAR     57  43  59 NE3       30.12R
PERRY          CLOUDY    61  43  50 N3        30.14S
CROSS CITY     PTCLDY    59  50  72 NE6       30.12S
JACKSONVILLE   PTCLDY    55  48  77 N5        30.16S
$$

!FLZ112-006-005-002-011-040100
...Florida Panhandle...

CITY           SKY/WX    TMP DP  RH WIND       PRES   REMARKS
MARIANNA       CLOUDY    57  39  51 NE7       30.15R
BONIFAY        MOCLDY    56  38  50 CALM      30.16R
PANAMA CITY NW FAIR      60  37  42 N9        30.12R
TYNDALL AFB    CLOUDY    62  40  45 NE6       30.12R
TYND DRONE APT NOT AVBL
DE FUNIAK SPR  NOT AVBL
EGLIN AFB      PTCLDY    60  35  39 NE14      30.11F
DESTIN         PTCLDY    63  38  39 NE10      30.11S
HURLBURT       MOCLDY    59  32  36 NE8       30.10S
CRESTVIEW      PTCLDY    58  37  45 NE6       30.14S
PENSACOLA      CLOUDY    62  37  39 NE5       30.12R
$$

!ALZ063-066-040100
...South Alabama...

CITY           SKY/WX    TMP DP  RH WIND       PRES   REMARKS
DOTHAN         CLOUDY    57  38  48 NE8       30.20R
OZARK CAIRNS   CLOUDY    58  34  41 NE9       30.15S
FT RUCKER HELI CLOUDY    58  35  42 NE7       30.15S
RUCKER HELI 3  NOT AVBL
RUCKER HELI 2  CLOUDY    59  33  37 NE10      30.16
FLORALA APT    CLOUDY    57  36  45 NE7       30.16S
ANDALUSIA      CLOUDY    60  35  39 NE9       30.15F
TROY           CLOUDY    54  34  46 NE10      30.20R
EUFALA         CLOUDY    57  34  41 N6        30.19R
MOBILE         CLOUDY    59  37  44 NE15G24   30.09F
$$

!GAZ120>161-040100
...Southwest and South Central Georgia...

CITY           SKY/WX    TMP DP  RH WIND       PRES   REMARKS
THOMASVILLE    CLOUDY    57  41  54 E6        30.18R
BAINBRIDGE     MOCLDY    59  37  44 NE6       30.18R
MOODY AFB      CLOUDY    58  37  44 NE6       30.17R
VALDOSTA       CLOUDY    59  41  51 NE6       30.17R
MOULTRIE       CLOUDY    57  37  47 CALM      30.18S
BLAKELY        CLOUDY    61  36  39 CALM      30.19R
ALBANY         CLOUDY    59  36  42 NE8       30.20S
TIFTON         CLOUDY    58  37  45 CALM      30.19S
FITZGERALD     NOT AVBL
CORDELE        NOT AVBL
AMERICUS       CLOUDY    55  32  41 NE5       30.23R
HOMERVILLE     CLOUDY    59  43  55 NE3       30.19R
$$

!GMZ750-755-770-775-040100
...Coastal and Buoy Obs...

STATION/POSITION TIME  TEMP    WIND        PRES    VSBY  WAVE
                       AIR SEA DIR/SP/G                  HT/PER
                 (UTC) (F)     (DEG/KT/KT) (MB)    (MI)  (FT/S)
KEATON BEACH     0000   61      30/  6/  8 1019.8R
CEDAR KEY        0000   67      40/  8/  9 1019.8R
C TOWER          0000   66      70/ 18/ 20 1019.9R
APALACHICOLA BUO 2350   71 74  100/ 14/ 16 1018.3R         4/ 6
PANAMA CITY BUOY 2350   71 75              1018.1R         6/ 7
MOBILE BUOY      0000   72 76  100/ 19/ 25 1015.9
ORANGE BCH AL BU 2350   67 70   80/ 17/ 21 1018.9R         5/ 7
$$




USA.gov is the U.S. government's official web portal to all federal, state and local government web resources and services.